User: anonymous   Login
Location: Aranbee
(34.0885°N, 118.2342°W)
Time: 17:31:03
(UTC+00:00)
Language:

Transit 2A Rocket - Orbit

View from above orbital plane
View from above orbital plane
View from above satellite
View from above satellite

Ground track
Ground track

The orbit data is extracted from the following two-line orbital elements,

1 00047U 60007C   20338.50620540  .00000106  00000-0  48459-4 0  9993
2 00047  66.6670  62.9456 0227981 181.4869 178.5588 14.42118596159055
Epoch (UTC): 03 December 2020 12:08:56
Eccentricity: 0.0227981
inclination: 66.6670°
perigee height: 589 km
apogee height: 914 km
right ascension of ascending node: 62.9456°
argument of perigee: 181.4869°
revolutions per day: 14.42118596
mean anomaly at epoch: 178.5588°
orbit number at epoch: 15905

The dashed part of the orbit path shows where the satellite is in the earth's shadow,  

DLR